Hourly Weather Smolyarka

Today, 6 May, Thursday

Time Temperature Precipitation Wind Pressure Humidity
00:00 +10°C° 0.5 mm 7 mps 735 mmHg 89%
01:00 +9°C° 0.5 mm 6 mps 735 mmHg 91%
02:00 +9°C° 0.5 mm 5 mps 735 mmHg 92%
03:00 +7°C° 0 mm 6 mps 736 mmHg 91%
04:00 +5°C° 0 mm 6 mps 737 mmHg 90%
05:00 +4°C° 0 mm 7 mps 738 mmHg 89%
06:00 +4°C° 0.1 mm 7 mps 738 mmHg 87%
07:00 +4°C° 0.1 mm 7 mps 739 mmHg 86%
08:00 +4°C° 0.1 mm 8 mps 740 mmHg 84%
09:00 +5°C° 0 mm 8 mps 740 mmHg 74%
10:00 +6°C° 0 mm 9 mps 741 mmHg 63%
11:00 +7°C° 0 mm 9 mps 742 mmHg 53%
12:00 +8°C° 0 mm 9 mps 742 mmHg 49%
13:00 +10°C° 0 mm 9 mps 742 mmHg 45%
14:00 +10°C° 0 mm 9 mps 742 mmHg 41%
15:00 +10°C° 0 mm 8 mps 743 mmHg 44%
16:00 +10°C° 0 mm 7 mps 743 mmHg 47%
17:00 +11°C° 0 mm 6 mps 743 mmHg 50%
18:00 +9°C° 0 mm 6 mps 743 mmHg 54%
19:00 +8°C° 0 mm 5 mps 743 mmHg 57%
20:00 +7°C° 0 mm 4 mps 743 mmHg 61%
21:00 +6°C° 0 mm 4 mps 743 mmHg 63%
22:00 +6°C° 0 mm 4 mps 743 mmHg 66%
23:00 +6°C° 0 mm 5 mps 743 mmHg 68%

Tomorrow, 7 May, Friday

Time Temperature Precipitation Wind Pressure Humidity
00:00 +6°C° 0 mm 5 mps 743 mmHg 74%
01:00 +6°C° 0 mm 5 mps 742 mmHg 80%
02:00 +6°C° 0 mm 5 mps 742 mmHg 86%
03:00 +6°C° 0.1 mm 5 mps 742 mmHg 86%
04:00 +6°C° 0.1 mm 4 mps 741 mmHg 87%
05:00 +6°C° 0.1 mm 4 mps 741 mmHg 88%
06:00 +6°C° 0 mm 5 mps 741 mmHg 86%
07:00 +7°C° 0 mm 5 mps 741 mmHg 85%
08:00 +7°C° 0 mm 6 mps 741 mmHg 83%
09:00 +8°C° 0.1 mm 5 mps 741 mmHg 83%
10:00 +8°C° 0.1 mm 5 mps 741 mmHg 82%
11:00 +8°C° 0.1 mm 4 mps 741 mmHg 82%
12:00 +8°C° 0.3 mm 5 mps 742 mmHg 83%
13:00 +8°C° 0.3 mm 5 mps 742 mmHg 83%
14:00 +8°C° 0.3 mm 5 mps 742 mmHg 84%
15:00 +8°C° 0.1 mm 5 mps 742 mmHg 81%
16:00 +8°C° 0.1 mm 5 mps 743 mmHg 78%
17:00 +8°C° 0.1 mm 4 mps 743 mmHg 75%
18:00 +7°C° 0.1 mm 4 mps 744 mmHg 79%
19:00 +7°C° 0.1 mm 3 mps 744 mmHg 82%
20:00 +5°C° 0.1 mm 3 mps 745 mmHg 86%
21:00 +4°C° 0 mm 3 mps 745 mmHg 87%
22:00 +4°C° 0 mm 3 mps 746 mmHg 89%
23:00 +3°C° 0 mm 3 mps 747 mmHg 90%

Day after tomorrow, 8 May, Saturday

Time Temperature Precipitation Wind Pressure Humidity
00:00 +3°C° 0 mm 2 mps 747 mmHg 90%
01:00 +3°C° 0 mm 2 mps 747 mmHg 90%
02:00 +2°C° 0 mm 2 mps 748 mmHg 89%
03:00 +2°C° 0 mm 2 mps 748 mmHg 90%
04:00 +2°C° 0 mm 2 mps 748 mmHg 90%
05:00 +2°C° 0 mm 2 mps 748 mmHg 90%
06:00 +3°C° 0 mm 3 mps 748 mmHg 85%
07:00 +5°C° 0 mm 3 mps 749 mmHg 79%
08:00 +7°C° 0 mm 3 mps 749 mmHg 73%
09:00 +8°C° 0 mm 4 mps 749 mmHg 67%
10:00 +10°C° 0 mm 4 mps 748 mmHg 61%
11:00 +10°C° 0 mm 5 mps 748 mmHg 54%
12:00 +12°C° 0 mm 5 mps 748 mmHg 57%
13:00 +12°C° 0 mm 5 mps 747 mmHg 59%
14:00 +12°C° 0 mm 5 mps 747 mmHg 62%
15:00 +11°C° 0.4 mm 4 mps 746 mmHg 72%
16:00 +10°C° 0.4 mm 4 mps 746 mmHg 82%
17:00 +8°C° 0.4 mm 3 mps 745 mmHg 91%
18:00 +9°C° 0.1 mm 3 mps 745 mmHg 92%
19:00 +9°C° 0.1 mm 3 mps 744 mmHg 93%
20:00 +9°C° 0.1 mm 3 mps 744 mmHg 93%
21:00 +10°C° 0.1 mm 3 mps 744 mmHg 94%
22:00 +10°C° 0.1 mm 3 mps 743 mmHg 94%
23:00 +10°C° 0.1 mm 2 mps 743 mmHg 95%

9 May, Sunday

Time Temperature Precipitation Wind Pressure Humidity
00:00 +10°C° 0 mm 2 mps 743 mmHg 95%
01:00 +10°C° 0 mm 3 mps 743 mmHg 95%
02:00 +10°C° 0 mm 3 mps 743 mmHg 95%

10 May, Monday

Time Temperature Precipitation Wind Pressure Humidity

11 May, Tuesday

Time Temperature Precipitation Wind Pressure Humidity
Show more

We Need Your Consent

Meteoprog and our Service Providers may store and access personal data such as cookies, device identifiers or other similar technologies on your device and process such data to personalise content and ads, as well as provide social media features and to analyse the traffic.

  • Store and/or access information on your device

    Cookies, device identifiers or other information can be stored or accessed on your device for the purposes indicated above.

  • Personalised ads and content, ad and content measurement, audience insights, and products development

    Ads and content can be personalised based on a profile. More data can be added to better personalise ads and content. Ad and content performance can be measured. Insights about the audience who saw the ads and content can be derived. Such data can be used to develop or improve user’s experience, systems and software.

By clicking ‘I Agree’ you will allow the use of indicated cookies, device identifiers, web beacons or other similar technologies. Your settings can be changed in the browser on your device.

For certain purposes, legitimate interests may be relied on, rather than consent. You can read more about this in our Privacy and Cookie Policy.